DW0529 Weather Reports


time (UTC)temp
C
wind
direction
speed
KPH
gust
KPH
rain 1hr
cm
rain 24hr
cm
rain mn
cm
humidity
%
barometer
mb
20260507050944 13 98 0.0 0.0 0.00 0.00 0.00 83 972.2
20260507045952 13 99 0.0 0.0 0.00 0.00 0.00 84 972.2
20260507044954 13 99 0.0 0.0 0.00 0.00 0.00 83 972.2
20260507044010 13 98 0.0 0.0 0.00 0.00 0.00 83 972.2
20260507041915 13 99 0.0 0.0 0.00 0.00 0.00 82 972.1
20260507040935 13 91 0.0 0.0 0.00 0.00 0.00 82 972.0
20260507034803 14 104 0.0 1.6 0.00 0.00 0.00 78 971.8
20260507033759 14 104 0.0 0.0 0.00 0.00 0.00 79 971.7
20260507032803 14 104 0.0 0.0 0.00 0.00 0.00 78 971.6
20260507031803 14 105 0.0 4.8 0.00 0.00 0.00 77 971.5
20260507030756 14 221 0.0 0.0 0.00 0.00 0.00 76 971.5
20260507025731 14 221 0.0 0.0 0.00 0.00 0.00 75 971.3
20260507024709 15 221 0.0 0.0 0.00 0.00 0.00 74 971.3
20260507023703 15 221 0.0 0.0 0.00 0.00 0.00 73 971.1
20260507022644 15 221 0.0 0.0 0.00 0.00 0.00 72 971.1
20260507020456 16 221 0.0 1.6 0.00 0.00 0.00 70 971.0
20260507015443 16 221 1.6 6.4 0.00 0.00 0.00 70 970.9
20260507013320 17 171 1.6 8.0 0.00 0.00 0.00 66 970.8
20260507012315 17 191 3.2 9.7 0.00 0.00 0.00 64 970.9
20260507011336 18 191 1.6 9.7 0.00 0.00 0.00 62 970.8
20260507010326 18 230 3.2 9.7 0.00 0.00 0.00 60 970.8
20260507005318 18 204 3.2 9.7 0.00 0.00 0.00 59 970.7
20260507004320 18 184 3.2 16.1 0.00 0.00 0.00 58 970.8
20260507003255 17 220 3.2 16.1 0.00 0.00 0.00 60 970.8
20260507001146 17 236 4.8 14.5 0.00 0.00 0.00 61 970.8
20260507000117 18 241 3.2 14.5 0.00 0.00 0.00 61 970.7
20260506235044 18 165 3.2 12.9 0.00 0.00 0.00 61 970.7
20260506234045 18 188 4.8 12.9 0.00 0.00 0.00 58 970.8
20260506231929 18 188 3.2 11.3 0.00 0.00 0.00 54 970.9
20260506230920 19 213 3.2 12.9 0.00 0.00 0.00 55 970.9
20260506225902 19 234 4.8 12.9 0.00 0.00 0.00 57 970.9
20260506224922 19 239 3.2 12.9 0.00 0.00 0.00 56 971.0
20260506222712 19 163 3.2 12.9 0.00 0.00 0.00 57 971.3
20260506221642 20 261 3.2 9.7 0.00 0.00 0.00 54 971.4
20260506215604 20 153 3.2 12.9 0.00 0.00 0.00 54 971.6
20260506214543 20 173 3.2 11.3 0.00 0.00 0.00 52 971.6
20260506213529 20 227 1.6 11.3 0.00 0.00 0.00 52 971.8
20260506212547 20 182 1.6 8.0 0.00 0.00 0.00 53 971.8
20260506211522 20 241 1.6 9.7 0.00 0.00 0.00 53 971.9
20260506210456 20 238 3.2 11.3 0.00 0.00 0.00 54 972.1
20260506204330 20 228 1.6 11.3 0.00 0.00 0.00 56 972.3
20260506203325 20 180 1.6 11.3 0.00 0.00 0.00 53 972.3
20260506202347 20 236 3.2 14.5 0.00 0.00 0.00 54 972.4
20260506200211 19 200 1.6 11.3 0.00 0.00 0.00 56 972.6
20260506195234 18 146 1.6 11.3 0.00 0.00 0.00 58 972.6
20260506194256 18 240 1.6 9.7 0.00 0.00 0.00 59 972.6
20260506192158 18 217 1.6 9.7 0.00 0.00 0.00 62 972.8
20260506190040 18 223 3.2 11.3 0.00 0.00 0.00 64 973.0
20260506183945 17 172 3.2 9.7 0.00 0.00 0.00 65 973.1
20260506183004 18 221 1.6 9.7 0.00 0.00 0.00 63 973.1
20260506174614 18 159 1.6 9.7 0.00 0.00 0.00 61 973.4
20260506173609 18 173 1.6 9.7 0.00 0.00 0.00 61 973.4
20260506172614 17 147 0.0 3.2 0.00 0.00 0.00 65 973.3
20260506171630 16 210 1.6 6.4 0.00 0.00 0.00 65 973.2
20260506165524 16 213 1.6 8.0 0.00 0.00 0.00 68 973.3
20260506163322 15 202 0.0 8.0 0.00 0.00 0.00 72 973.2
20260506162249 15 211 1.6 6.4 0.00 0.00 0.00 74 973.3
20260506161215 15 216 0.0 6.4 0.00 0.00 0.00 73 973.2
20260506160200 15 205 0.0 1.6 0.00 0.00 0.00 74 973.3
20260506155144 14 200 0.0 1.6 0.00 0.00 0.00 77 973.3
20260506154149 14 200 0.0 3.2 0.00 0.00 0.00 79 973.2
20260506153153 13 196 0.0 3.2 0.00 0.00 0.00 81 973.3
20260506152127 12 194 0.0 0.0 0.00 0.00 0.00 85 973.3
20260506151105 12 194 0.0 3.2 0.00 0.00 0.00 85 973.2
20260506150123 12 194 0.0 1.6 0.00 0.00 0.00 86 973.1
20260506145147 12 194 0.0 0.0 0.00 0.00 0.00 87 973.3
20260506143040 11 194 0.0 0.0 0.00 0.00 0.00 89 973.3
20260506142034 11 194 0.0 0.0 0.00 0.00 0.00 90 973.2
20260506135906 10 194 0.0 0.0 0.00 0.00 0.00 89 973.0
20260506134917 10 194 0.0 0.0 0.00 0.00 0.00 88 972.9
20260506133938 10 194 0.0 0.0 0.00 0.00 0.00 88 972.7
20260506132932 10 194 0.0 0.0 0.00 0.00 0.00 88 972.7
20260506131917 10 194 0.0 0.0 0.00 0.00 0.00 89 972.6
20260506130917 10 194 0.0 0.0 0.00 0.00 0.00 89 972.4
20260506125935 10 194 0.0 0.0 0.00 0.00 0.00 88 972.2
20260506124927 10 194 0.0 0.0 0.00 0.00 0.00 88 972.3
20260506122750 10 194 0.0 0.0 0.00 0.00 0.00 89 972.1
20260506121743 10 194 0.0 0.0 0.00 0.00 0.00 90 972.0
20260506120752 10 194 0.0 0.0 0.00 0.00 0.00 90 972.1
20260506114608 10 194 0.0 0.0 0.00 0.00 0.00 90 972.0
20260506113617 10 194 0.0 0.0 0.00 0.00 0.00 90 972.0
20260506111403 10 194 0.0 0.0 0.00 0.00 0.00 91 972.0
20260506110421 10 194 0.0 0.0 0.00 0.00 0.00 90 972.0
20260506105417 10 194 0.0 0.0 0.00 0.00 0.00 90 972.0
20260506104349 10 194 0.0 0.0 0.00 0.00 0.00 90 972.0
20260506103341 10 194 0.0 0.0 0.00 0.00 0.00 90 972.1
20260506102403 10 194 0.0 0.0 0.00 0.00 0.00 90 972.0
20260506101334 10 194 0.0 0.0 0.00 0.00 0.00 90 972.1
20260506100334 10 194 0.0 0.0 0.00 0.00 0.00 90 972.0
20260506095326 11 194 0.0 0.0 0.00 0.00 0.00 90 972.1
20260506094300 11 194 0.0 0.0 0.00 0.00 0.00 89 972.2
20260506093324 11 194 0.0 0.0 0.00 0.00 0.00 89 972.2
20260506092347 11 194 0.0 0.0 0.00 0.00 0.00 89 972.2
20260506091325 11 194 0.0 0.0 0.00 0.00 0.00 89 972.2
20260506090321 11 194 0.0 0.0 0.00 0.00 0.00 89 972.3
20260506085317 11 194 0.0 0.0 0.00 0.00 0.00 88 972.4
20260506083153 11 194 0.0 0.0 0.00 0.00 0.00 87 972.6
20260506082138 11 194 0.0 0.0 0.00 0.00 0.00 88 972.5
20260506081146 11 194 0.0 0.0 0.00 0.00 0.00 88 972.6
20260506080131 11 194 0.0 0.0 0.00 0.00 0.00 89 972.7
20260506072920 11 194 0.0 0.0 0.00 0.00 0.00 88 972.6
20260506071915 11 194 0.0 0.0 0.00 0.00 0.00 88 972.6
20260506070841 11 194 0.0 0.0 0.00 0.00 0.00 87 972.4
20260506062451 11 194 0.0 0.0 0.00 0.00 0.00 86 971.8
20260506060310 11 194 0.0 0.0 0.00 0.00 0.00 86 971.8